This demonstration page uses our WeatherBlox Daily Observations layout. Learn more.

Hourly Observations for July 13, 2015

Temp ( °F °C ) Dew Point ( °F °C ) Humidity (%) Winds ( mph kmh ) Pressure ( in mb ) Visibility ( mi km ) Precip ( " mm )
12:15 am 00:15 Clear 76 24.5 69 20.5 78 78 SSE 5 7 29.77 1008 10 16.0934 0 0
12:35 am 00:35 Clear 75 23.9 69 20.5 81 81 SSE 5 7 29.77 1008 10 16.0934 0 0
12:55 am 00:55 Clear 75 24 69 20.6 81 81 S 3 6 29.77 1008 10 16.0934 0 0
1:15 am 01:15 Clear 75 24.1 69 20.5 80 80 S 5 7 29.77 1008 10 16.0934 0 0
1:35 am 01:35 Clear 75 24.1 69 20.4 80 80 S 5 7 29.74 1007 10 16.0934 0 0
1:55 am 01:55 Clear 75 23.7 69 20.4 82 82 S 6 9 29.74 1007 10 16.0934 0 0
2:15 am 02:15 Clear 76 24.3 69 20.6 80 80 SSE 5 7 29.71 1006 10 16.0934 0 0
2:35 am 02:35 Clear 74 23.6 69 20.4 82 82 SSE 6 9 29.71 1006 10 16.0934 0 0
2:55 am 02:55 Clear 74 23.5 69 20.5 83 83 S 5 7 29.71 1006 10 16.0934 0 0
3:15 am 03:15 Clear 75 24 69 20.5 81 81 SSW 6 9 29.71 1006 10 16.0934 0 0
3:35 am 03:35 Clear 75 23.8 69 20.5 82 82 S 7 11 29.71 1006 10 16.0934 0 0
3:55 am 03:55 Clear 75 24.1 69 20.6 81 81 SSW 7 11 29.71 1006 10 16.0934 0 0
4:15 am 04:15 Clear 75 24 69 20.5 81 81 S 6 9 29.71 1006 10 16.0934 0 0
4:35 am 04:35 Clear 74 23.5 69 20.5 83 83 Calm 29.71 1006 10 16.0934 0 0
4:55 am 04:55 Clear 73 22.7 69 20.5 87 87 Calm 29.71 1006 10 16.0934 0 0
5:15 am 05:15 Clear 74 23.6 69 20.6 83 83 SW 3 6 29.71 1006 10 16.0934 0 0
5:35 am 05:35 Clear 74 23.3 69 20.5 84 84 Calm 29.71 1006 10 16.0934 0 0
5:55 am 05:55 Clear 72 22.2 68 20.1 88 88 NNW 7 11 29.71 1006 10 16.0934 0 0
6:15 am 06:15 Clear 72 22 68 20 88 88 NNW 5 7 29.71 1006 10 16.0934 0 0
6:35 am 06:35 Sunny 72 22.1 67 19.7 86 86 NNW 6 9 29.71 1006 10 16.0934 0 0
6:55 am 06:55 Sunny 72 22.4 67 19.2 82 82 NW 5 7 29.71 1006 10 16.0934 0 0
7:15 am 07:15 Sunny 72 22.2 66 19 82 82 N 5 7 29.74 1007 10 16.0934 0 0
7:35 am 07:35 Sunny 72 22.3 67 19.5 84 84 N 5 7 29.71 1006 10 16.0934 0 0
7:55 am 07:55 Sunny 73 22.8 67 19.7 83 83 Calm 29.71 1006 10 16.0934 0 0
8:15 am 08:15 Sunny 75 23.7 67 19.6 78 78 N 7 11 29.71 1006 10 16.0934 0 0
8:35 am 08:35 Sunny 76 24.3 68 19.9 77 77 N 9 15 29.74 1007 10 16.0934 0 0
8:55 am 08:55 Sunny 77 24.8 69 20.3 76 76 N 7 11 29.74 1007 10 16.0934 0 0
9:15 am 09:15 Sunny 78 25.5 69 20.4 73 73 N 8 13 29.71 1006 10 16.0934 0 0
9:35 am 09:35 Sunny 78 25.7 69 20.5 73 73 N 5 7 29.71 1006 10 16.0934 0 0
9:55 am 09:55 Sunny 80 26.7 69 20.3 68 68 N 9 15 29.71 1006 10 16.0934 0 0
10:15 am 10:15 Sunny 82 28 68 20.2 63 63 NNE 6 9 29.71 1006 10 16.0934 0 0
10:35 am 10:35 Sunny 84 29.1 65 18.4 52 52 N 8 13 29.68 1005 10 16.0934 0 0
10:55 am 10:55 Sunny 85 29.5 66 19.1 54 54 NNE 8 13 29.71 1006 10 16.0934 0 0
11:15 am 11:15 Sunny 87 30.3 64 17.5 46 46 N 9 15 29.71 1006 10 16.0934 0 0
11:35 am 11:35 Sunny 86 30.2 63 17 45 45 NNE 14 22 29.71 1006 10 16.0934 0 0
11:55 am 11:55 Sunny 87 30.8 62 16.8 43 43 NE 12 19 29.71 1006 10 16.0934 0 0
12:15 pm 12:15 Sunny 87 30.7 63 17.4 45 45 NNE 14 22 29.74 1007 10 16.0934 0 0
12:35 pm 12:35 Sunny 87 30.8 63 17 44 44 NNE 10 17 29.74 1007 10 16.0934 0 0
12:55 pm 12:55 Sunny 89 31.5 61 16.2 40 40 NE 10 17 29.74 1007 10 16.0934 0 0
1:15 pm 13:15 Sunny 87 30.5 63 17.2 45 45 ENE 8 13 29.74 1007 10 16.0934 0 0
1:35 pm 13:35 Sunny 87 30.5 63 17.3 45 45 ENE 6 9 29.74 1007 10 16.0934 0 0
1:55 pm 13:55 Sunny 87 30.8 62 16.9 43 43 E 7 11 29.74 1007 10 16.0934 0 0
2:15 pm 14:15 Sunny 89 31.5 63 17.3 43 43 E 8 13 29.74 1007 10 16.0934 0 0
2:35 pm 14:35 Sunny 88 31.3 63 17.4 43 43 E 8 13 29.71 1006 10 16.0934 0 0
2:55 pm 14:55 Sunny 87 30.7 64 17.9 46 46 E 6 9 29.71 1006 10 16.0934 0 0
3:15 pm 15:15 Sunny 87 30.3 67 19.3 52 52 ESE 6 9 29.71 1006 10 16.0934 0 0
3:35 pm 15:35 Sunny 86 29.9 67 19.7 54 54 ESE 5 7 29.71 1006 10 16.0934 0 0
3:55 pm 15:55 Sunny 86 30.2 69 20.8 57 57 ESE 5 7 29.71 1006 10 16.0934 0 0
4:15 pm 16:15 Sunny 86 30.2 68 20 54 54 E 6 9 29.71 1006 10 16.0934 0 0
4:35 pm 16:35 Sunny 86 29.9 68 19.8 55 55 ENE 5 7 29.71 1006 10 16.0934 0 0
4:55 pm 16:55 Sunny 86 30 68 19.9 55 55 E 3 6 29.71 1006 10 16.0934 0 0
5:15 pm 17:15 Sunny 87 30.3 65 18.2 48 48 ENE 6 9 29.71 1006 10 16.0934 0 0
5:35 pm 17:35 Sunny 86 30.2 67 19.2 52 52 E 5 7 29.71 1006 10 16.0934 0 0
6:15 pm 18:15 Sunny 87 30.6 68 20 53 53 E 7 11 29.68 1005 10 16.0934 0 0
6:55 pm 18:55 Sunny 87 30.3 69 20.7 56 56 SE 5 7 29.65 1004 10 16.0934 0 0
7:15 pm 19:15 Sunny 86 29.9 71 21.6 61 61 SE 3 6 29.65 1004 10 16.0934 0 0
7:35 pm 19:35 Sunny 85 29.7 70 21.2 60 60 SSE 3 6 29.65 1004 10 16.0934 0 0
7:55 pm 19:55 Sunny 85 29.3 71 21.7 64 64 SSE 3 6 29.65 1004 10 16.0934 0 0
8:15 pm 20:15 Sunny 84 28.7 73 22.5 69 69 SSE 5 7 29.68 1005 10 16.0934 0 0
8:35 pm 20:35 Sunny 81 27.4 72 22.3 74 74 SSE 5 7 29.71 1006 10 16.0934 0 0
8:55 pm 20:55 Sunny 80 26.5 71 21.9 76 76 S 5 7 29.74 1007 10 16.0934 0 0
9:15 pm 21:15 Clear 79 26 71 21.5 76 76 S 6 9 29.74 1007 10 16.0934 0 0
9:35 pm 21:35 Clear 77 25.1 70 21.2 79 79 SSE 6 9 29.77 1008 10 16.0934 0 0
9:55 pm 21:55 Clear 76 24.7 69 20.5 78 78 SSE 5 7 29.77 1008 10 16.0934 0 0
10:15 pm 22:15 Clear 76 24.2 68 19.9 77 77 Calm 29.77 1008 10 16.0934 0 0
10:35 pm 22:35 Clear 74 23.2 68 20.2 83 83 Calm 29.77 1008 10 16.0934 0 0
10:55 pm 22:55 Clear 73 23 67 19.6 81 81 Calm 29.77 1008 10 16.0934 0 0
11:15 pm 23:15 Clear 72 22.2 67 19.4 84 84 Calm 29.77 1008 10 16.0934 0 0
11:35 pm 23:35 Clear 72 22 67 19.5 86 86 Calm 29.77 1008 10 16.0934 0 0
11:55 pm 23:55 Clear 71 21.6 66 18.9 85 85 Calm 29.77 1008 10 16.0934 0 0

Powered by AerisWeather